Moose, Wyoming, United States (83012)
Lat: 43.66N, Lon: 110.72W
Wx Zone: WYZ013
Local Info
Past Weather Observations for Saturday, July 26, 2014

NOTE: This archive is for the closest National Weather Service station to Moose. Information may differ from the station used for current weather conditions.

Click here for Long-term Archive

Time Weather Temperature Dewpoint Humidity Pressure Winds Precip Visibility
23:55
Clear
46°F / 8°C 32°F / 0°C 57% 30.36 in
(1028 mb)
N 8.1 mph
(N 13 kph)
- 10SM
23:35
Clear
48°F / 9°C 32°F / 0°C 54% 30.36 in
(1028 mb)
NE 3.5 mph
(NE 6 kph)
- 10SM
23:15
Clear
48°F / 9°C 32°F / 0°C 54% 30.36 in
(1028 mb)
Calm - 10SM
22:55
Clear
48°F / 9°C 32°F / 0°C 54% 30.36 in
(1028 mb)
N 3.5 mph
(N 6 kph)
- 10SM
22:35
Clear
50°F / 10°C 34°F / 1°C 54% 30.36 in
(1028 mb)
N 4.6 mph
(N 7 kph)
- 10SM
22:15
Clear
52°F / 11°C 34°F / 1°C 50% 30.36 in
(1028 mb)
N 3.5 mph
(N 6 kph)
- 10SM
21:55
Clear
50°F / 10°C 32°F / 0°C 50% 30.36 in
(1028 mb)
Calm - 10SM
21:35
Clear
54°F / 12°C 34°F / 1°C 47% 30.33 in
(1027 mb)
NNE 5.8 mph
(NNE 9 kph)
- 10SM
21:15
Clear
55°F / 13°C 34°F / 1°C 44% 30.33 in
(1027 mb)
N 5.8 mph
(N 9 kph)
- 10SM
20:55
Clear
57°F / 14°C 27°F / -3°C 31% 30.33 in
(1027 mb)
NNW 4.6 mph
(NNW 7 kph)
- 10SM
20:35
Clear
63°F / 17°C 27°F / -3°C 25% 30.33 in
(1027 mb)
E 4.6 mph
(E 7 kph)
- 10SM
20:15
Clear
64°F / 18°C 27°F / -3°C 24% 30.33 in
(1027 mb)
E 3.5 mph
(E 6 kph)
- 10SM
18:55
Clear
75°F / 24°C 25°F / -4°C 15% 30.27 in
(1025 mb)
W 5.8 mph
(W 9 kph)
- 10SM
17:55
Clear
81°F / 27°C 21°F / -6°C 11% 30.27 in
(1025 mb)
Calm - 10SM
16:55
Clear
81°F / 27°C 21°F / -6°C 11% 30.27 in
(1025 mb)
Calm - 10SM
15:55
Clear
81°F / 27°C 21°F / -6°C 11% 30.27 in
(1025 mb)
SSW 11.5 mph
(SSW 19 kph)
- 10SM
14:55
Clear
81°F / 27°C 21°F / -6°C 11% 30.27 in
(1025 mb)
SW 10.4 mph
(SW 17 kph)
- 10SM
12:55
Clear
79°F / 26°C 21°F / -6°C 12% 30.3 in
(1026 mb)
SW 9.2 mph
(SW 15 kph)
- 10SM
11:58
Clear
79°F / 26°C 25°F / -4°C 13% 30.3 in
(1026 mb)
S 5.8 mph
(S 9 kph)
- 10SM
09:51
Clear
66°F / 19°C 32°F / 0°C 28% 30.3 in
(1026 mb)
Calm - 10SM
07:58
Clear
57°F / 14°C 30°F / -1°C 36% 30.3 in
(1026 mb)
Calm - 10SM
05:54
Clear
39°F / 4°C 30°F / -1°C 70% 30.27 in
(1025 mb)
NNE 5.8 mph
(NNE 9 kph)
- 10SM
05:35
Clear
37°F / 3°C 30°F / -1°C 75% 30.27 in
(1025 mb)
NE 4.6 mph
(NE 7 kph)
- 10SM
05:15
Clear
37°F / 3°C 30°F / -1°C 75% 30.27 in
(1025 mb)
N 5.8 mph
(N 9 kph)
- 10SM
04:55
Clear
37°F / 3°C 30°F / -1°C 75% 30.27 in
(1025 mb)
N 3.5 mph
(N 6 kph)
- 10SM
04:35
Clear
37°F / 3°C 30°F / -1°C 75% 30.27 in
(1025 mb)
Calm - 10SM
04:15
Clear
37°F / 3°C 30°F / -1°C 75% 30.24 in
(1024 mb)
NE 4.6 mph
(NE 7 kph)
- 10SM
03:55
Clear
37°F / 3°C 32°F / 0°C 81% 30.24 in
(1024 mb)
NE 3.5 mph
(NE 6 kph)
- 10SM
03:35
Clear
39°F / 4°C 32°F / 0°C 75% 30.24 in
(1024 mb)
NNE 5.8 mph
(NNE 9 kph)
- 10SM
03:15
Clear
39°F / 4°C 32°F / 0°C 75% 30.24 in
(1024 mb)
N 10.4 mph
(N 17 kph)
- 10SM
02:55
Clear
37°F / 3°C 30°F / -1°C 75% 30.21 in
(1023 mb)
N 10.4 mph
(N 17 kph)
- 10SM
02:35
Clear
39°F / 4°C 30°F / -1°C 70% 30.21 in
(1023 mb)
NNE 3.5 mph
(NNE 6 kph)
- 10SM
02:15
Clear
41°F / 5°C 30°F / -1°C 66% 30.21 in
(1023 mb)
N 6.9 mph
(N 11 kph)
- 10SM
01:55
Clear
43°F / 6°C 30°F / -1°C 61% 30.21 in
(1023 mb)
NE 4.6 mph
(NE 7 kph)
- 10SM
01:35
Clear
39°F / 4°C 30°F / -1°C 70% 30.21 in
(1023 mb)
NE 3.5 mph
(NE 6 kph)
- 10SM
01:15
Clear
41°F / 5°C 30°F / -1°C 66% 30.21 in
(1023 mb)
N 5.8 mph
(N 9 kph)
- 10SM
00:55
Clear
43°F / 6°C 30°F / -1°C 61% 30.21 in
(1023 mb)
N 8.1 mph
(N 13 kph)
- 10SM
00:35
Clear
45°F / 7°C 30°F / -1°C 57% 30.21 in
(1023 mb)
N 8.1 mph
(N 13 kph)
- 10SM
00:15
Clear
46°F / 8°C 28°F / -2°C 50% 30.21 in
(1023 mb)
NNE 5.8 mph
(NNE 9 kph)
- 10SM
Time Weather Temperature Dewpoint Humidity Pressure Winds Precip Visibility


Weather for websites

WeatherForYou.com, LLC is not responsible for any damages or problems caused by this service. Current weather conditions are obtained from the closest station including government and personal stations which may have varying degrees of accuracy. Weather forecasts are derived from the NOAA NDFD. Like all things, this site belongs to Jesus Christ... He just trusts me to maintain it. If you have any questions or comments email webmaster@weatherforyou.com

Copyright © 2014, WeatherForYou.com LLC. All rights reserved.